When you browse on this site, cookies collect data to enhance your experience and personalize the content and advertising you see.
Visit our Privacy Policy to learn more. By continuing to use the site, you agree to this use of cookies and data.
  • In Romania
  • List of Countries
  • For 7 days
  • Water Temperature
  • Satellite Maps
  • Weather Map
  • Weather Widgets
  • user-avatar
    Login

    Hourly Weather Shusha

    Today, 25 June, Tuesday

    Time Temperature Precipitation Wind Pressure Humidity
    00:00 +21°C° 0 mm 2 mps 660 mmHg 72%
    01:00 +20°C° 0 mm 2 mps 660 mmHg 71%
    02:00 +20°C° 0 mm 2 mps 660 mmHg 70%
    03:00 +21°C° 0 mm 1 mps 660 mmHg 73%
    04:00 +22°C° 0 mm 1 mps 660 mmHg 71%
    05:00 +22°C° 0 mm 1 mps 661 mmHg 68%
    06:00 +23°C° 0 mm 1 mps 661 mmHg 66%
    07:00 +25°C° 0 mm 1 mps 661 mmHg 56%
    08:00 +26°C° 0 mm 1 mps 662 mmHg 46%
    09:00 +28°C° 0 mm 2 mps 662 mmHg 36%
    10:00 +28°C° 0 mm 2 mps 662 mmHg 34%
    11:00 +29°C° 0 mm 2 mps 662 mmHg 33%
    12:00 +30°C° 0 mm 2 mps 662 mmHg 32%
    13:00 +30°C° 0 mm 2 mps 662 mmHg 32%
    14:00 +30°C° 0 mm 2 mps 662 mmHg 32%
    15:00 +31°C° 0 mm 2 mps 662 mmHg 32%
    16:00 +30°C° 0 mm 2 mps 662 mmHg 36%
    17:00 +29°C° 0 mm 1 mps 661 mmHg 39%
    18:00 +29°C° 0 mm 1 mps 661 mmHg 42%
    19:00 +27°C° 0 mm 1 mps 661 mmHg 43%
    20:00 +25°C° 0 mm 1 mps 661 mmHg 44%
    21:00 +23°C° 0 mm 1 mps 661 mmHg 45%
    22:00 +23°C° 0 mm 2 mps 661 mmHg 44%
    23:00 +21°C° 0 mm 2 mps 661 mmHg 43%

    Tomorrow, 26 June, Wednesday

    Time Temperature Precipitation Wind Pressure Humidity
    00:00 +21°C° 0 mm 2 mps 661 mmHg 43%
    01:00 +21°C° 0 mm 2 mps 661 mmHg 42%
    02:00 +20°C° 0 mm 2 mps 661 mmHg 42%
    03:00 +20°C° 0 mm 2 mps 660 mmHg 41%
    04:00 +21°C° 0 mm 2 mps 661 mmHg 42%
    05:00 +22°C° 0 mm 1 mps 661 mmHg 44%
    06:00 +23°C° 0 mm 1 mps 661 mmHg 45%
    07:00 +24°C° 0 mm 2 mps 662 mmHg 40%
    08:00 +26°C° 0 mm 2 mps 662 mmHg 35%
    09:00 +28°C° 0 mm 2 mps 663 mmHg 29%
    10:00 +28°C° 0 mm 2 mps 663 mmHg 29%
    11:00 +29°C° 0 mm 3 mps 662 mmHg 29%
    12:00 +30°C° 0 mm 3 mps 662 mmHg 29%
    13:00 +30°C° 0 mm 3 mps 662 mmHg 30%
    14:00 +30°C° 0 mm 3 mps 662 mmHg 32%
    15:00 +31°C° 0 mm 3 mps 662 mmHg 33%
    16:00 +30°C° 0 mm 3 mps 661 mmHg 38%
    17:00 +29°C° 0 mm 3 mps 661 mmHg 42%
    18:00 +28°C° 0 mm 4 mps 661 mmHg 47%
    19:00 +26°C° 0 mm 3 mps 660 mmHg 53%
    20:00 +24°C° 0 mm 2 mps 660 mmHg 59%
    21:00 +20°C° 0 mm 2 mps 660 mmHg 64%
    22:00 +20°C° 0 mm 2 mps 660 mmHg 65%
    23:00 +21°C° 0 mm 1 mps 659 mmHg 65%

    Day after tomorrow, 27 June, Thursday

    Time Temperature Precipitation Wind Pressure Humidity
    00:00 +20°C° 0 mm 1 mps 659 mmHg 65%
    01:00 +20°C° 0 mm 1 mps 659 mmHg 67%
    02:00 +19°C° 0 mm 1 mps 659 mmHg 69%
    03:00 +19°C° 0 mm 1 mps 659 mmHg 71%
    04:00 +19°C° 0.1 mm 1 mps 659 mmHg 72%
    05:00 +19°C° 0.1 mm 1 mps 659 mmHg 73%
    06:00 +20°C° 0.1 mm 1 mps 659 mmHg 74%
    07:00 +20°C° 0.1 mm 2 mps 659 mmHg 70%
    08:00 +21°C° 0.1 mm 2 mps 660 mmHg 66%
    09:00 +22°C° 0.1 mm 3 mps 660 mmHg 62%
    10:00 +24°C° 0.1 mm 3 mps 660 mmHg 59%
    11:00 +25°C° 0.1 mm 4 mps 659 mmHg 56%
    12:00 +25°C° 0.1 mm 4 mps 659 mmHg 54%
    13:00 +26°C° 0.1 mm 4 mps 659 mmHg 52%
    14:00 +26°C° 0.1 mm 4 mps 658 mmHg 50%
    15:00 +26°C° 0.1 mm 4 mps 658 mmHg 48%
    16:00 +25°C° 0.1 mm 4 mps 658 mmHg 51%
    17:00 +25°C° 0.1 mm 3 mps 658 mmHg 53%
    18:00 +24°C° 0.1 mm 3 mps 657 mmHg 56%
    19:00 +21°C° 0.3 mm 2 mps 657 mmHg 62%
    20:00 +20°C° 0.3 mm 2 mps 657 mmHg 67%
    21:00 +19°C° 0.3 mm 1 mps 657 mmHg 73%
    22:00 +19°C° 0 mm 1 mps 657 mmHg 74%
    23:00 +19°C° 0 mm 1 mps 656 mmHg 75%

    28 June, Friday

    Time Temperature Precipitation Wind Pressure Humidity
    00:00 +18°C° 0 mm 1 mps 656 mmHg 75%
    01:00 +18°C° 0.1 mm 1 mps 656 mmHg 76%
    02:00 +16°C° 0.1 mm 1 mps 655 mmHg 77%
    03:00 +16°C° 0.1 mm 1 mps 655 mmHg 78%
    04:00 +18°C° 0.2 mm 1 mps 655 mmHg 77%
    05:00 +18°C° 0.2 mm 1 mps 655 mmHg 76%
    06:00 +19°C° 0.2 mm 1 mps 655 mmHg 75%
    07:00 +20°C° 0 mm 1 mps 655 mmHg 70%
    08:00 +21°C° 0 mm 1 mps 655 mmHg 65%
    09:00 +21°C° 0 mm 2 mps 656 mmHg 59%
    10:00 +23°C° 0 mm 2 mps 655 mmHg 57%
    11:00 +24°C° 0 mm 2 mps 655 mmHg 55%
    12:00 +25°C° 0 mm 3 mps 655 mmHg 53%
    13:00 +25°C° 0 mm 3 mps 655 mmHg 52%
    14:00 +25°C° 0 mm 2 mps 654 mmHg 52%
    15:00 +26°C° 0 mm 2 mps 654 mmHg 52%
    16:00 +25°C° 0.5 mm 2 mps 654 mmHg 56%
    17:00 +24°C° 0.5 mm 1 mps 653 mmHg 60%
    18:00 +23°C° 0.5 mm 1 mps 653 mmHg 65%
    19:00 +22°C° 0.3 mm 1 mps 653 mmHg 69%
    20:00 +21°C° 0.3 mm 1 mps 654 mmHg 74%
    21:00 +19°C° 0.3 mm 2 mps 654 mmHg 79%
    22:00 +19°C° 0.1 mm 2 mps 654 mmHg 78%
    23:00 +18°C° 0.1 mm 2 mps 654 mmHg 77%

    29 June, Saturday

    Time Temperature Precipitation Wind Pressure Humidity
    00:00 +18°C° 0.1 mm 2 mps 654 mmHg 77%
    01:00 +18°C° 0 mm 2 mps 654 mmHg 76%
    02:00 +19°C° 0 mm 1 mps 653 mmHg 76%
    03:00 +19°C° 0 mm 1 mps 653 mmHg 76%
    04:00 +20°C° 0 mm 1 mps 654 mmHg 74%
    05:00 +20°C° 0 mm 1 mps 654 mmHg 73%
    06:00 +20°C° 0 mm 1 mps 654 mmHg 72%
    07:00 +22°C° 0 mm 1 mps 654 mmHg 66%
    08:00 +23°C° 0 mm 2 mps 655 mmHg 60%
    09:00 +25°C° 0 mm 2 mps 655 mmHg 55%
    10:00 +25°C° 0.1 mm 2 mps 655 mmHg 53%
    11:00 +26°C° 0.1 mm 2 mps 654 mmHg 51%
    12:00 +27°C° 0.1 mm 2 mps 654 mmHg 49%
    13:00 +27°C° 0.3 mm 2 mps 654 mmHg 48%
    14:00 +28°C° 0.3 mm 2 mps 654 mmHg 47%
    15:00 +28°C° 0.3 mm 2 mps 653 mmHg 47%
    16:00 +27°C° 0.2 mm 2 mps 653 mmHg 50%
    17:00 +27°C° 0.2 mm 2 mps 653 mmHg 53%
    18:00 +26°C° 0.2 mm 2 mps 653 mmHg 56%
    19:00 +25°C° 0.8 mm 2 mps 653 mmHg 61%
    20:00 +23°C° 0.8 mm 2 mps 654 mmHg 65%
    21:00 +22°C° 0.8 mm 1 mps 654 mmHg 70%
    22:00 +21°C° 0.2 mm 1 mps 654 mmHg 73%
    23:00 +20°C° 0.2 mm 1 mps 654 mmHg 76%

    30 June, Sunday

    Time Temperature Precipitation Wind Pressure Humidity
    00:00 +19°C° 0.2 mm 1 mps 654 mmHg 79%
    01:00 +19°C° 0.2 mm 1 mps 654 mmHg 81%
    02:00 +18°C° 0.2 mm 1 mps 654 mmHg 84%
    03:00 +18°C° 0.2 mm 1 mps 653 mmHg 86%
    04:00 +18°C° 0 mm 1 mps 654 mmHg 84%
    05:00 +19°C° 0 mm 1 mps 654 mmHg 82%
    06:00 +17°C° 0 mm 0 mps 654 mmHg 79%
    07:00 +20°C° 0 mm 1 mps 654 mmHg 76%
    08:00 +21°C° 0 mm 1 mps 655 mmHg 74%
    09:00 +21°C° 0 mm 2 mps 655 mmHg 71%
    10:00 +21°C° 0 mm 2 mps 655 mmHg 68%
    11:00 +23°C° 0 mm 2 mps 654 mmHg 66%
    12:00 +24°C° 0 mm 2 mps 654 mmHg 64%
    13:00 +24°C° 0 mm 2 mps 654 mmHg 62%
    14:00 +25°C° 0 mm 2 mps 654 mmHg 60%
    15:00 +26°C° 0 mm 2 mps 654 mmHg 57%
    16:00 +25°C° 0 mm 2 mps 654 mmHg 62%
    17:00 +24°C° 0 mm 2 mps 653 mmHg 66%
    18:00 +23°C° 0 mm 2 mps 653 mmHg 70%
    19:00 +21°C° 0 mm 2 mps 654 mmHg 73%
    20:00 +20°C° 0 mm 2 mps 654 mmHg 77%
    21:00 +19°C° 0 mm 2 mps 654 mmHg 80%
    22:00 +19°C° 0 mm 2 mps 655 mmHg 83%
    23:00 +19°C° 0 mm 1 mps 655 mmHg 86%
    Show more